Latest Weather Observations for Nerriga

IDN60801

Issued at 7:05 am EDT Tuesday 25 November 2014 (issued every 30 minutes, with the page automatically refreshed every 10 minutes)

About weather observations | Map of weather stations | Latest weather observations for NSW | Other Formats
Station Details ID: 069128 Name: NERRIGA AWS Lat: -35.11 Lon: 150.08 Height: 622.0 m
Data from the previous 72 hours. | See also: Recent months at Nerriga
Date/Time
EDT
Temp
°C
App
Temp
°C
Dew
Point
Rel
Hum
%
Delta-T
°C
Wind Press
QNH
hPa
Press
MSL
hPa
Rain
since 9 am
mm
Dir
 
Spd
km/h
Gust
km/h
Spd
kts
Gust
kts
25/07:00am 16.4 13.8 10.7 69 3.1 WNW 15 28 8 15 1013.6 1012.0 1.2
25/06:30am 16.5 15.1 12.1 75 2.5 NW 11 19 6 10 1012.7 1011.1 1.2
25/06:00am 16.8 15.2 12.7 77 2.3 W 13 24 7 13 1012.1 1010.5 1.2
25/05:30am 16.9 15.6 13.8 82 1.8 W 13 15 7 8 1011.4 1009.8 1.2
25/05:00am 16.9 14.6 14.2 84 1.6 NW 19 32 10 17 1010.5 1008.9 1.2
25/04:30am 17.0 14.6 13.9 82 1.8 NW 19 26 10 14 1010.2 1008.5 1.2
25/04:00am 17.1 14.5 13.8 81 1.9 WNW 20 33 11 18 1010.0 1008.4 1.2
25/03:30am 16.9 12.3 13.4 80 2.0 NW 30 39 16 21 1009.4 1007.8 1.2
25/03:00am 17.1 13.9 13.0 77 2.4 NNW 22 32 12 17 1009.1 1007.5 1.2
25/02:30am 17.5 15.3 13.4 77 2.4 NNW 17 24 9 13 1009.1 1007.5 1.2
25/02:00am 17.5 16.2 13.6 78 2.3 NNW 13 19 7 10 1009.4 1007.8 1.2
25/01:30am 17.6 16.1 13.1 75 2.6 WNW 13 19 7 10 1009.9 1008.3 1.2
25/01:00am 18.0 16.3 13.5 75 2.6 NW 15 22 8 12 1010.5 1008.9 1.2
25/12:30am 18.4 18.6 14.1 76 2.5 WSW 6 9 3 5 1010.2 1008.5 1.2
25/12:00am 19.3 15.7 14.1 72 3.1 W 26 46 14 25 1011.9 1010.3 1.2
 
Date/Time
EDT
Temp
°C
App
Temp
°C
Dew
Point
Rel
Hum
%
Delta-T
°C
Wind Press
QNH
hPa
Press
MSL
hPa
Rain
since 9 am
mm
Dir
 
Spd
km/h
Gust
km/h
Spd
kts
Gust
kts
24/11:50pm 20.8 17.1 16.0 74 3.0 WSW 30 41 16 22 1012.3 1010.7 1.2
24/11:30pm 19.7 21.1 17.8 89 1.2 E 7 17 4 9 1011.3 1009.7 1.2
24/11:00pm 19.6 21.9 17.7 89 1.2 E 2 4 1 2 1011.0 1009.4 1.2
24/10:30pm 19.4 21.7 17.7 90 1.1 E 2 4 1 2 1011.2 1009.6 1.2
24/10:00pm 19.1 21.2 17.2 89 1.2 E 2 4 1 2 1011.3 1009.7 1.2
24/09:30pm 19.5 21.9 16.9 85 1.6 CALM 0 0 0 0 1011.4 1009.8 1.2
24/09:00pm 19.8 21.0 16.8 83 1.9 E 6 7 3 4 1011.2 1009.6 1.2
24/08:30pm 20.3 21.5 16.9 81 2.1 E 6 7 3 4 1011.1 1009.5 1.2
24/08:00pm 20.7 24.0 19.0 90 1.1 ESE 0 4 0 2 1010.9 1009.3 1.2
24/07:30pm 20.9 22.2 18.5 86 1.5 E 9 15 5 8 1010.5 1008.9 1.2
24/07:00pm 21.0 22.2 19.1 89 1.2 E 11 15 6 8 1009.8 1008.2 1.2
24/06:30pm 21.5 23.5 19.2 87 1.5 SE 7 13 4 7 1009.7 1008.1 1.2
24/06:00pm 21.5 23.9 20.0 91 1.0 S 7 9 4 5 1009.8 1008.2 1.2
24/05:30pm 21.4 23.6 19.7 90 1.1 S 7 11 4 6 1010.5 1008.9 1.2
24/05:00pm 21.4 22.8 18.6 84 1.8 S 9 11 5 6 1011.6 1010.0 1.2
24/04:30pm 22.5 23.7 17.4 73 3.2 S 7 11 4 6 1011.6 1010.0 1.0
24/04:00pm 23.4 27.1 20.0 81 2.2 CALM 0 0 0 0 1012.0 1010.4 1.0
24/03:30pm 23.1 25.3 19.7 81 2.2 S 7 11 4 6 1011.1 1009.5 1.0
24/03:00pm 23.0 24.9 19.0 78 2.6 SE 7 11 4 6 1011.3 1009.7 1.0
24/02:30pm 22.7 23.2 18.3 76 2.8 W 13 17 7 9 1012.1 1010.5 1.0
24/02:23pm 23.7 24.0 17.0 66 4.2 NW 11 17 6 9 1012.3 1010.7 0.8
24/02:00pm 28.7 28.8 14.5 42 8.8 NE 7 19 4 10 1011.6 1010.0 0.0
24/01:30pm 27.9 26.9 14.5 44 8.3 ENE 13 22 7 12 1011.9 1010.3 0.0
24/01:00pm 29.5 29.2 13.3 37 9.9 NW 7 19 4 10 1012.3 1010.7 0.0
24/12:30pm 29.1 28.1 13.3 37 9.6 N 11 19 6 10 1013.1 1011.5 0.0
24/12:00pm 28.0 27.0 12.4 38 9.3 N 9 15 5 8 1013.6 1012.0 0.0
24/11:30am 27.6 27.0 12.4 39 9.1 NNW 7 13 4 7 1014.3 1012.7 0.0
24/11:00am 27.5 27.1 13.1 41 8.7 WNW 7 17 4 9 1014.6 1013.1 0.0
24/10:30am 26.3 26.5 14.7 48 7.1 W 7 13 4 7 1014.9 1013.4 0.0
24/10:00am 25.0 23.6 13.5 48 6.9 W 13 20 7 11 1015.1 1013.6 0.0
24/09:30am 24.2 24.7 15.1 56 5.6 NNW 6 9 3 5 1015.6 1014.0 0.0
24/09:00am 22.0 23.1 16.5 71 3.4 E 6 6 3 3 1015.7 1014.1 0.2
24/08:30am 19.1 21.0 17.6 91 0.9 S 4 7 2 4 1015.9 1014.3 0.2
24/08:00am 18.3 20.0 18.0 98 0.2 SSW 6 9 3 5 1015.4 1013.8 0.2
24/07:30am 18.0 20.3 17.7 98 0.2 SSE 2 9 1 5 1015.4 1013.8 0.2
24/07:00am 17.4 18.7 17.1 98 0.2 SSE 6 9 3 5 1015.4 1013.8 0.2
24/06:30am 17.1 18.3 16.8 98 0.2 SSE 6 7 3 4 1015.8 1014.2 0.2
24/06:00am 17.0 18.6 16.8 99 0.1 SSE 4 7 2 4 1016.2 1014.7 0.2
24/05:30am 17.0 18.5 16.7 98 0.2 SSE 4 7 2 4 1016.6 1015.1 0.2
24/05:00am 16.9 18.4 16.6 98 0.2 SE 4 7 2 4 1016.4 1014.9 0.2
24/04:30am 17.0 17.9 16.7 98 0.2 SSW 7 11 4 6 1016.6 1015.1 0.2
24/04:00am 17.2 17.5 17.0 99 0.1 SW 11 43 6 23 1017.7 1016.2 0.2
24/03:30am 17.2 17.1 17.0 99 0.1 SW 13 19 7 10 1016.6 1015.1 0.2
24/03:00am 17.7 18.6 17.5 99 0.1 ENE 9 15 5 8 1014.9 1013.4 0.2
24/02:30am 17.7 19.2 17.5 99 0.1 SW 6 13 3 7 1016.1 1014.6 0.2
24/02:00am 17.9 19.4 17.6 98 0.2 SW 6 9 3 5 1016.3 1014.8 0.0
24/01:30am 17.6 19.0 17.3 98 0.2 ESE 6 9 3 5 1016.2 1014.7 0.0
24/01:00am 17.7 19.1 17.4 98 0.2 ESE 6 7 3 4 1016.3 1014.8 0.0
24/12:30am 17.8 19.1 17.5 98 0.2 SE 7 11 4 6 1016.8 1015.3 0.0
24/12:00am 18.0 18.2 17.7 98 0.2 ENE 13 19 7 10 1016.6 1015.1 0.0
 
Date/Time
EDT
Temp
°C
App
Temp
°C
Dew
Point
Rel
Hum
%
Delta-T
°C
Wind Press
QNH
hPa
Press
MSL
hPa
Rain
since 9 am
mm
Dir
 
Spd
km/h
Gust
km/h
Spd
kts
Gust
kts
23/11:30pm 18.9 17.6 17.2 90 1.1 ENE 20 28 11 15 1016.2 1014.7 0.0
23/11:00pm 19.0 19.9 16.0 83 1.8 S 6 9 3 5 1015.7 1014.1 0.0
23/10:30pm 19.5 19.3 15.8 79 2.3 S 11 19 6 10 1014.7 1013.2 0.0
23/10:00pm 21.1 20.3 16.1 73 3.1 SSE 15 20 8 11 1014.2 1012.6 0.0
23/09:30pm 21.8 22.2 15.2 66 4.0 SSE 7 9 4 5 1014.3 1012.7 0.0
23/09:00pm 22.3 22.4 15.6 66 4.1 NNE 9 15 5 8 1014.7 1013.2 0.0
23/08:30pm 21.1 22.4 17.1 78 2.5 WSW 6 9 3 5 1015.5 1013.9 0.0
23/08:00pm 21.4 22.2 17.2 77 2.6 SSW 9 13 5 7 1015.6 1014.0 0.0
23/07:30pm 22.7 23.8 16.5 68 3.9 SSE 6 9 3 5 1015.6 1014.0 0.0
23/07:00pm 23.4 25.2 16.4 64 4.4 SE 2 7 1 4 1014.5 1012.9 0.0
23/06:30pm 24.5 24.0 16.0 59 5.3 SE 13 20 7 11 1013.3 1011.8 0.0
23/06:00pm 24.2 22.3 15.7 59 5.3 SE 20 28 11 15 1012.6 1011.0 0.0
23/05:30pm 27.2 24.5 14.6 46 7.8 SE 22 32 12 17 1012.1 1010.5 0.0
23/05:00pm 27.0 23.7 11.5 38 9.1 SE 20 35 11 19 1011.5 1009.9 0.0
23/04:30pm 29.3 24.8 11.4 33 10.6 ESE 26 39 14 21 1012.0 1010.4 0.0
23/04:00pm 29.8 23.3 10.4 30 11.3 ESE 35 48 19 26 1011.4 1009.8 0.0
23/03:30pm 28.4 21.8 10.1 32 10.6 ESE 35 52 19 28 1011.5 1009.9 0.0
23/03:00pm 31.6 26.5 9.2 25 13.0 E 26 41 14 22 1011.9 1010.3 0.0
23/02:53pm 32.4 27.6 7.3 21 14.1 SSE 22 30 12 16 1012.1 1010.5 0.0
23/02:30pm 38.7 31.2 4.2 12 19.1 NW 33 57 18 31 1011.5 1009.9 0.0
23/02:23pm 38.7 32.3 5.4 13 18.7 NW 28 57 15 31 1011.4 1009.8 0.0
23/02:00pm 36.9 29.7 5.0 14 17.7 NW 32 44 17 24 1011.7 1010.1 0.0
23/01:42pm 37.9 29.3 4.7 13 18.4 NW 39 57 21 31 1012.0 1010.4 0.0
23/01:30pm 37.9 29.5 5.8 14 18.1 NW 39 52 21 28 1012.1 1010.5 0.0
23/01:23pm 37.3 30.2 5.3 14 17.9 W 32 52 17 28 1012.3 1010.7 0.0
23/01:07pm 37.7 29.3 5.6 14 18.0 W 39 50 21 27 1012.3 1010.7 0.0
23/01:00pm 37.4 29.9 6.4 15 17.6 WNW 35 50 19 27 1012.5 1010.9 0.0
23/12:30pm 37.5 29.7 6.5 15 17.6 NW 37 57 20 31 1012.7 1011.1 0.0
23/12:20pm 37.2 30.3 6.3 15 17.5 NW 32 57 17 31 1012.6 1011.0 0.0
23/12:05pm 36.8 30.6 7.8 17 16.8 NW 30 44 16 24 1012.9 1011.3 0.0
23/12:00pm 35.3 33.2 8.2 19 15.7 N 9 17 5 9 1013.2 1011.7 0.0
23/11:30am 35.3 32.8 9.7 21 15.1 N 13 22 7 12 1013.4 1011.9 0.0
23/11:00am 33.1 30.9 9.2 23 13.9 N 11 17 6 9 1013.8 1012.2 0.0
23/10:30am 31.9 29.9 8.8 24 13.3 N 9 17 5 9 1014.0 1012.4 0.0
23/10:00am 29.9 29.0 10.5 30 11.4 NNW 6 11 3 6 1014.3 1012.7 0.0
23/09:30am 27.8 26.5 9.1 31 10.6 NW 6 9 3 5 1014.5 1012.9 0.0
23/09:00am 26.2 26.0 11.9 41 8.4 WSW 4 7 2 4 1014.5 1012.9 0.0
23/08:30am 24.3 24.4 12.6 48 6.9 WSW 4 7 2 4 1014.5 1012.9 0.0
23/08:00am 22.7 23.4 14.5 60 5.0 WSW 4 6 2 3 1014.3 1012.7 0.0
23/07:30am 21.4 21.9 14.1 63 4.4 SW 4 6 2 3 1014.1 1012.5 0.0
23/07:29am 21.1 21.5 13.8 63 4.3 SW 4 6 2 3 1014.1 1012.5 0.0
23/07:00am 16.1 16.3 13.2 83 1.7 SW 4 6 2 3 1014.1 1012.5 0.0
23/06:30am 14.9 14.5 12.4 85 1.4 WSW 6 7 3 4 1014.0 1012.4 0.0
23/06:00am 15.1 15.9 12.6 85 1.4 CALM 0 0 0 0 1013.8 1012.2 0.0
23/05:30am 15.4 16.2 12.5 83 1.6 CALM 0 2 0 1 1013.7 1012.1 0.0
23/05:00am 16.5 16.9 12.5 77 2.3 WSW 2 4 1 2 1013.3 1011.8 0.0
23/04:30am 16.0 16.9 12.9 82 1.8 CALM 0 0 0 0 1012.9 1011.3 0.0
23/04:00am 16.5 17.5 13.2 81 1.9 CALM 0 0 0 0 1012.8 1011.2 0.0
23/03:30am 16.9 17.3 13.6 81 1.9 WSW 4 6 2 3 1013.1 1011.5 0.0
23/03:00am 15.8 16.9 13.6 87 1.3 CALM 0 0 0 0 1013.1 1011.5 0.0
23/02:30am 15.9 17.1 13.7 87 1.3 CALM 0 0 0 0 1013.1 1011.5 0.0
23/02:00am 15.9 17.0 13.6 86 1.3 CALM 0 0 0 0 1013.6 1012.0 0.0
23/01:30am 15.7 16.6 12.8 83 1.7 CALM 0 2 0 1 1013.7 1012.1 0.0
23/01:00am 16.3 16.9 13.0 81 1.9 WSW 2 4 1 2 1014.1 1012.5 0.0
23/12:30am 17.3 17.5 13.2 77 2.4 WSW 4 6 2 3 1014.1 1012.5 0.0
23/12:00am 18.7 19.0 14.4 76 2.6 WSW 6 7 3 4 1014.3 1012.7 0.0
 
Date/Time
EDT
Temp
°C
App
Temp
°C
Dew
Point
Rel
Hum
%
Delta-T
°C
Wind Press
QNH
hPa
Press
MSL
hPa
Rain
since 9 am
mm
Dir
 
Spd
km/h
Gust
km/h
Spd
kts
Gust
kts
22/11:30pm 17.9 19.0 13.4 75 2.6 CALM 0 4 0 2 1014.4 1012.8 0.0
22/11:00pm 18.1 18.4 13.4 74 2.7 WSW 4 4 2 2 1014.4 1012.8 0.0
22/10:30pm 18.1 18.0 13.4 74 2.7 WSW 6 7 3 4 1014.6 1013.1 0.0
22/10:00pm 18.4 19.2 14.9 80 2.1 WSW 4 6 2 3 1014.7 1013.2 0.0
22/09:30pm 19.0 19.3 15.1 78 2.3 WSW 7 9 4 5 1014.6 1013.1 0.0
22/09:00pm 19.6 19.8 14.2 71 3.2 WSW 6 6 3 3 1014.3 1012.7 0.0
22/08:30pm 21.3 22.3 15.4 69 3.6 WSW 4 6 2 3 1014.0 1012.4 0.0
22/08:00pm 23.2 23.9 14.5 58 5.3 WSW 4 6 2 3 1013.8 1012.2 0.0
22/07:30pm 24.4 24.7 15.1 56 5.7 WSW 7 9 4 5 1013.2 1011.7 0.0
22/07:00pm 28.1 27.8 13.2 39 9.0 WSW 7 15 4 8 1013.0 1011.4 0.0
22/06:30pm 28.5 25.7 8.7 29 11.2 WSW 13 20 7 11 1012.6 1011.0 0.0
22/06:00pm 30.4 25.1 7.0 23 13.0 W 24 33 13 18 1012.3 1010.7 0.0
22/05:30pm 30.3 25.2 6.2 22 13.2 W 22 37 12 20 1012.0 1010.4 0.0
22/05:00pm 31.4 24.9 6.5 21 13.8 NW 30 37 16 20 1011.9 1010.3 0.0
22/04:30pm 31.9 28.0 6.9 21 13.9 WNW 17 24 9 13 1012.0 1010.4 0.0
22/04:00pm 32.1 25.6 6.3 20 14.3 NW 30 43 16 23 1011.9 1010.3 0.0
22/03:30pm 31.8 25.2 6.1 20 14.1 WNW 30 41 16 22 1012.0 1010.4 0.0
22/03:00pm 31.6 27.3 8.0 23 13.4 WNW 20 28 11 15 1012.1 1010.5 0.0
22/02:30pm 29.6 29.1 12.5 35 10.3 N 7 15 4 8 1012.6 1011.0 0.0
22/02:00pm 29.4 29.1 12.8 36 10.1 NNW 6 13 3 7 1013.1 1011.5 0.0
22/01:30pm 27.2 26.6 12.4 40 8.8 N 7 17 4 9 1013.4 1011.9 0.0
22/01:00pm 26.1 26.0 13.2 44 7.8 NNW 6 13 3 7 1014.4 1012.8 0.0
22/12:30pm 24.8 23.6 12.7 47 7.2 N 11 17 6 9 1014.7 1013.2 0.0
22/12:00pm 23.8 23.3 13.9 54 6.0 N 9 19 5 10 1015.6 1014.0 0.0
22/11:30am 22.8 22.5 14.4 59 5.1 N 9 17 5 9 1015.7 1014.1 0.0
22/11:00am 21.8 20.9 13.7 60 4.8 NNE 11 17 6 9 1016.1 1014.6 0.0
22/10:30am 20.2 18.9 13.6 66 3.9 N 13 19 7 10 1016.4 1014.9 0.0
22/10:00am 19.8 18.2 14.0 69 3.4 NNE 15 20 8 11 1016.6 1015.1 0.0
22/09:30am 18.5 16.9 13.8 74 2.8 N 15 24 8 13 1016.6 1015.1 0.0
22/09:00am 17.6 15.9 13.5 77 2.4 NE 15 22 8 12 1016.6 1015.1 0.0
22/08:30am 16.6 14.0 13.1 80 2.0 NE 19 32 10 17 1016.2 1014.7 0.0
22/08:00am 15.8 14.1 13.5 86 1.3 NNE 15 26 8 14 1016.5 1015.0 0.0
22/07:30am 15.4 14.1 13.8 90 0.9 ENE 13 19 7 10 1016.5 1015.0 0.0

Other Formats:

Comma delimited format used in spreadsheet applications
http://www.bom.gov.au/fwo/IDN60801/IDN60801.94943.axf

JavaScript Object Notation format (JSON) in row-major order
http://www.bom.gov.au/fwo/IDN60801/IDN60801.94943.json